Location: *
(40.7765°S, 106.5327°E)
Time: 13:13:25
(UTC+00:00)

USA 281 - Visible Passes

Search period start: 26 September 2022 00:00
Search period end: 06 October 2022 00:00
Orbit: 1078 x 1081 km, 106.0° (Epoch: 22 September)

Date Brightness Start Highest point End Pass type
(mag) Time Alt. Az. Time Alt. Az. Time Alt. Az.
26 Sep 5.6 15:56:47 10° SSE 15:57:26 13° SSE 15:57:26 13° SSE visible
26 Sep 5.2 17:41:56 10° S 17:44:19 20° SSW 17:44:19 20° SSW visible
27 Sep 5.3 16:51:40 10° SSE 16:53:39 21° SSE 16:53:39 21° SSE visible
27 Sep 5.4 18:38:29 10° SSW 18:40:31 13° SSW 18:40:31 13° SSW visible
28 Sep 5.5 16:02:01 10° SSE 16:02:59 15° SSE 16:02:59 15° SSE visible
28 Sep 5.2 17:47:12 10° S 17:49:51 21° SSW 17:49:51 21° SSW visible
29 Sep 5.1 16:56:55 10° SSE 16:59:11 23° S 16:59:11 23° S visible
29 Sep 5.4 18:43:46 10° SSW 18:46:03 13° SW 18:46:03 13° SW visible
30 Sep 5.4 16:07:16 10° SSE 16:08:31 16° SSE 16:08:31 16° SSE visible
30 Sep 5.1 17:52:27 10° S 17:55:24 22° SSW 17:55:24 22° SSW visible
01 Oct 5.0 17:02:10 10° SSE 17:04:44 25° S 17:04:44 25° S visible
01 Oct 5.4 18:49:01 10° SSW 18:51:36 13° SW 18:51:36 13° SW visible
02 Oct 5.3 16:12:30 10° SSE 16:14:04 18° SSE 16:14:04 18° SSE visible
02 Oct 5.0 17:57:41 10° S 18:00:56 23° SSW 18:00:56 23° SSW visible
03 Oct 4.9 17:07:24 10° SSE 17:10:16 27° S 17:10:16 27° S visible
03 Oct 5.3 18:54:18 10° SSW 18:57:08 13° SW 18:57:08 13° SW visible
04 Oct 5.2 16:17:45 10° SSE 16:19:36 20° SE 16:19:36 20° SE visible
04 Oct 4.9 18:02:56 10° S 18:06:29 24° SSW 18:06:29 24° SSW visible
05 Oct 4.8 17:12:40 10° SSE 17:15:49 30° S 17:15:49 30° S visible
05 Oct 5.3 18:59:33 10° SSW 19:02:22 13° SW 19:02:41 13° SW visible
